Location: Finnegan
(51.1333°N, 112.0833°W)
Time: 19:50:33
(UTC+00:00)

Envisat - Pass Details

Date: 08 December 2021
Orbit: 764 x 766 km, 98.2° (Epoch: 26 January)

Event Time Altitude Azimuth Distance (km) Brightness Sun altitude
Rises 13:01:36 0° 12° (NNE) 3,247 6.3 -20.4°
Reaches altitude 10° 13:03:56 10° 10° (N) 2,316 5.5 -20.0°
Maximum altitude 13:08:59 65° 289° (WNW) 842 2.9 -19.3°
Drops below altitude 10° 13:14:00 10° 208° (SSW) 2,299 5.3 -18.5°
Sets 13:16:18 0° 206° (SSW) 3,220 6.1 -18.2°
